Regional Weather Roundup
Issued by NWS

Home | Current Version | Previous Version | Graphics & Text | Print | Product List | Glossary Off
Versions: 1 2 3 4 5 6 7 8 9 10 11 12 13 14 15 16 17 18 19 20 21 22 23 24 25 26 27 28 29 30 31 32 33 34 35 36 37 38 39 40 41 42 43 44 45 46 47 48 49 50

149
ASUS43 KDTX 161310
RWRMI
MICHIGAN HOURLY REGIONAL WEATHER ROUNDUP
NATIONAL WEATHER SERVICE DETROIT/PONTIAC MI
ISSUED BY NATIONAL WEATHER SERVICE GRAND RAPIDS MI
800 AM EST MON JAN 16 2017

NOTE: "FAIR" INDICATES FEW OR NO CLOUDS BELOW 12,000 FEET WITH NO
SIGNIFICANT WEATHER AND/OR OBSTRUCTION TO VISIBILITY.

MIZ047>049-052>055-059>063-066>070-074>076-081>083-161400-
SOUTHEAST LOWER MICHIGAN

CITY           SKY/WX    TMP DP  RH WIND       PRES   REMARKS
ADRIAN         CLOUDY    26  25  96 CALM      30.33R FOG
ALMA           CLOUDY    21  20  95 CALM      30.31S FOG
ANN ARBOR      CLOUDY    24  22  91 CALM      30.32S FOG
BAD AXE        CLOUDY    22  19  90 SW3       30.32S
DETROIT CITY   PTCLDY    23  21  92 CALM      30.35S FOG
DETROIT        CLOUDY    26  22  84 CALM      30.34F FOG
FLINT          CLOUDY    21  18  88 S5        30.32S WCI  15
GROSSE ILE     CLOUDY    27  26  95 CALM      30.33S FOG
HILLSDALE      CLOUDY    28  27  93 E3        30.28F FOG
HOWELL         CLOUDY    22  19  89 CALM      30.30F

CITY           SKY/WX    TMP DP  RH WIND       PRES   REMARKS
JACKSON        MIX PCPN  27  23  85 SE3       30.30S FOG
LANSING        CLOUDY    24  21  88 CALM      30.32S FOG
MASON          CLOUDY    26  24  90 CALM      30.31S
MONROE         CLOUDY    28  27  96 N5        30.33S FOG     WCI  22
MT. CLEMENS    PTCLDY    20  19  94 CALM      30.33S
PONTIAC        CLOUDY    20  15  81 CALM      30.31R HAZE
PORT HOPE        N/A     24  20  84 SW6       30.29S WCI  17
PORT HURON     PTCLDY    18  16  93 CALM      30.35S
TRI CITIES     CLOUDY    23  21  92 S5        30.31F FOG     WCI  17
YPSILANTI      CLOUDY    25  23  92 NE3       30.34S FOG
$$
MIZ043>046-050>051-056>058-064>065-071>073-077>080-161400-
SOUTHWEST LOWER MICHIGAN

CITY           SKY/WX    TMP DP  RH WIND       PRES   REMARKS
BATTLE CREEK   CLOUDY    28  23  81 SE5       30.29F WCI  23
BENTON HARBOR  FRZ RAIN  32  27  81 E5        30.29S WCI  27
BIG RAPIDS     CLOUDY    13  11  88 CALM      30.28S
COLDWATER      CLOUDY    31  27  84 E3        30.29S
HOLLAND        CLOUDY    29  23  78 SE5       30.29F WCI  24
GRAND RAPIDS   CLOUDY    25  21  85 CALM      30.29F FOG
KALAMAZOO      CLOUDY    29  23  78 S5        30.30S HAZE    WCI  24
MARSHALL       CLOUDY    29  25  87 CALM      30.29F
MOUNT PLEASANT PTCLDY    17  15  89 CALM      30.29S FOG
MUSKEGON       CLOUDY    26  23  88 SE5       30.29F FOG     WCI  20
STURGIS        CLOUDY    31  27  84 E5        30.28S WCI  26
$$
MIZ016>042-161400-
NORTHERN LOWER MICHIGAN

CITY           SKY/WX    TMP DP  RH WIND       PRES   REMARKS
ALPENA         CLOUDY    21  17  84 SW3       30.25S
BEAVER ISLAND  CLOUDY    30  25  80 SW13      30.22R WCI  20
BELLAIRE       CLOUDY    10   8  92 CALM      30.27S
CADILLAC       CLOUDY    12   9  87 CALM      30.23F
CHARLEVOIX     CLOUDY    22  22 100 SE3       30.27S FOG
GAYLORD        CLOUDY    22  18  85 SW8       30.21S FOG     WCI  12
HOUGHTON LAKE  CLOUDY     6   2  83 CALM      30.26S
MANISTEE       CLOUDY    14  11  87 NE3       30.28S
OSCODA         CLOUDY    18  15  88 SW5       30.28R WCI  11
PELLSTON       CLOUDY    28  23  81 SW8       30.22R WCI  20
TRAVERSE CITY  CLOUDY    18  14  84 CALM      30.26R
LUDINGTON      PTCLDY    22  21  98 CALM      30.28F FOG
$$
MIZ007>008-015-161400-
EASTERN UPPER MICHIGAN

CITY           SKY/WX    TMP DP  RH WIND       PRES   REMARKS
KINROSS        CLOUDY    25  23  92 W8        30.17S WCI  16
MACKINAC ISLAN CLOUDY    29  29 100 SW13      30.19S WCI  18
NEWBERRY       CLOUDY    19  13  78 SW12      30.15F WCI   6
S. S. MARIE    PTCLDY    20  16  84 CALM      30.17R
$$
MIZ004>006-011>014-085-161400-
CENTRAL UPPER MICHIGAN

CITY           SKY/WX    TMP DP  RH WIND       PRES   REMARKS
MANISTIQUE     CLOUDY    20  16  86 CALM      30.20S
ESCANABA       CLOUDY    -1  -4  87 CALM      30.23S
SAWYER-GWINN   CLEAR      9   7  92 SW6       30.14S WCI  -1
$$
MIZ001>003-009>011-084-161400-
WESTERN UPPER MICHIGAN

CITY           SKY/WX    TMP DP  RH WIND       PRES   REMARKS
IRON MOUNTAIN  CLOUDY    13   7  77 N5        30.16F WCI   5
HOUGHTON       CLEAR     26  17  68 W13       30.09R WCI  15
COPPER HARBOR    N/A     26  22  84 W5        30.10R WCI  20
IRONWOOD       CLEAR     14  11  87 CALM      30.15S
$$

ABBREVIATIONS USED IN REMARKS
   TC - TEMPERATURE IN CELSIUS
  WCI - WIND CHILL INDEX
   HX - HEAT INDEX
  VSB - VISIBILITY





USA.gov is the U.S. government's official web portal to all federal, state and local government web resources and services.